Location: *
(49.0044°N, 9.5056°E)
Time: 05:02:40
(UTC+00:00)

Cosmos 1455 Rocket - Pass Details

Date: 22 September 2019
Orbit: 605 x 630 km, 82.5° (Epoch: 18 October)

Event Time Altitude Azimuth Distance (km) Brightness Sun altitude
Rises 19:42:13 0° 208° (SSW) 2,898 6.5 -23.0°
Reaches altitude 10° 19:44:33 10° 216° (SW) 1,999 5.7 -23.4°
Maximum altitude 19:48:44 39° 286° (WNW) 945 4.4 -24.0°
Drops below altitude 10° 19:52:57 10° 356° (N) 2,021 6.1 -24.5°
Sets 19:55:19 0° 4° (N) 2,935 6.9 -24.9°
